Regional Weather Roundup
Issued by NWS Sterling, VA

Home | Current Version | Previous Version | Graphics & Text | Print | Product List | Glossary On
Versions: 1 2 3 4 5 6 7 8 9 10 11 12 13 14 15 16 17 18 19 20 21 22 23 24 25 26 27 28 29 30 31 32 33 34 35 36 37 38 39 40 41 42 43 44 45 46 47 48 49 50
000
ASUS41 KLWX 231210
RWRLWX

REGIONAL WEATHER ROUNDUP
NATIONAL WEATHER SERVICE BALTIMORE MD/WASHINGTON DC
700 AM EST SUN NOV 23 2014

Note: "FAIR" indicates few or no clouds below 12,000 feet
with no significant weather and/or obstructions to visibility.
 TC=TEMPERATURE CELSIUS

 * =Non NWS site. Station does not report precipitation (e.g. rain,
    snow, etc.), thunder, or fog.

DCZ001-MDZ009-015-VAZ040>042-051-053>054-231300-
WASHINGTON METRO

CITY           SKY/WX    TMP DP  RH WIND       PRES   REMARKS
WASHINGTON NAT MOCLDY    41  21  44 S5        30.25R
DULLES         MOCLDY    35  19  52 S3        30.22R
ANDREWS AFB    PTCLDY    38  19  46 SW7       30.23R
FT BELVOIR     PTCLDY    35  23  61 SE2       30.24R
QUANTICO       PTCLDY    39  24  55 SW3       30.25R
COLLEGE PARK*  PTCLDY    34  25  69 CALM      30.24R
LEESBURG*      MOCLDY    32  27  80 CALM      30.23R
MANASSAS*      PTCLDY    28  25  86 CALM      30.23R
GAITHERSBURG*  PTCLDY    36  18  48 CALM      30.25R

$$

MDZ006>007-011-014-231300-
BALTIMORE METRO

CITY           SKY/WX    TMP DP  RH WIND       PRES   REMARKS
BWI AIRPORT    MOCLDY    35  20  54 CALM      30.23R
MD SCIENCE CTR   N/A     40  19  43 MISG      30.23R
MARTIN STATE   MOCLDY    36  30  80 CALM      30.24R
ANNAPOLIS      PTCLDY    40  19  43 S5        30.24R
FORT MEADE*    PTCLDY    32  23  69 CALM      30.26R

$$

MDZ012-015-019>023-231300-
MARYLAND EASTERN SHORE

CITY           SKY/WX    TMP DP  RH WIND       PRES   REMARKS
OCEAN CITY     PTCLDY    44  27  51 SW7       30.27R
SALISBURY      PTCLDY    40  32  73 S5        30.27R
BAY BRIDGE AP*   N/A     45  23  42 S6        30.25R
CAMBRIDGE*     PTCLDY    43  27  52 S3        30.26R

$$

MDZ017>025-231300-
SOUTHERN MARYLAND

CITY           SKY/WX    TMP DP  RH WIND       PRES   REMARKS
PATUXENT RIVER MOCLDY    44  19  36 SW8       30.25R
ST INIGOES     MOCLDY    44  25  47 SW8       30.26R
LEONARDTOWN*   MOCLDY    43  21  42 SW7       30.26R

$$

MDZ003>005-231300-
NORTH CENTRAL MARYLAND

CITY           SKY/WX    TMP DP  RH WIND       PRES   REMARKS
FREDERICK*     CLEAR     34  27  75 S3        30.24R
HAGERSTOWN APT PTCLDY    41  19  41 S3        30.18R
WESTMINSTER*   NOT AVBL

$$

MDZ501>502-231300-
WESTERN MARYLAND

CITY           SKY/WX    TMP DP  RH WIND       PRES   REMARKS
OAKLAND*       PTCLDY    45  32  61 SW9       30.13S
CUMBERLAND*    PTCLDY    32  27  80 CALM      30.21R

$$

VAZ025>031-231300-
SHENANDOAH VALLEY

CITY           SKY/WX    TMP DP  RH WIND       PRES   REMARKS
WINCHESTER*    PTCLDY    43  14  31 SW10G17   30.18R
FRONT ROYAL*   FAIR      43  21  42 SW9       30.18R
LURAY*         FAIR      45  25  45 SW6       30.21R
NEW MARKET*    FAIR      31  24  74 CALM      30.20R
STAUNTON*      MOCLDY    38  20  47 CALM      30.22S
WAYNESBORO*    PTSUNNY   34  21  59 CALM      30.19F

$$

WVZ021-048>050-054>055-231300-
EASTERN WEST VIRGINIA PANHANDLE

CITY           SKY/WX    TMP DP  RH WIND       PRES   REMARKS
MARTINSBURG    PTCLDY    33  21  61 CALM      30.19R
PETERSBURG*    PTCLDY    34  26  72 CALM      30.17R

$$

VAZ036>039-050-231300-
CENTRAL FOOTHILLS

CITY           SKY/WX    TMP DP  RH WIND       PRES   REMARKS
CHARLOTTESVILL MOCLDY    37  20  50 S3        30.19F
CULPEPER*      PTCLDY    28  23  80 CALM      30.22R
ORANGE*        MOCLDY    36  23  60 S6        30.23S
GORDONSVILLE*  FAIR      32  22  67 CALM      30.21S
WARRENTON*     FAIR      31  26  84 CALM      30.21R

$$

VAZ055>057-231300-
NORTH AND CENTRAL PIEDMONT

CITY           SKY/WX    TMP DP  RH WIND       PRES   REMARKS
FREDERICKSBRG* MOCLDY    37  19  48 CALM      30.23S
STAFFORD*      PTCLDY    29  20  69 CALM      30.27S

$$

NCZ024-NYZ072-PAZ021-071-VAZ022-071-231300-
OTHER REGIONAL OBSERVATIONS

CITY           SKY/WX    TMP DP  RH WIND       PRES   REMARKS
NEW YORK CITY  CLOUDY    44  22  41 W8        30.21S
PHILADELPHIA   MOCLDY    41  24  51 S8        30.24R
PITTSBURGH     CLOUDY    47  31  53 SE5       30.09R
ROANOKE        MOCLDY    32  23  69 CALM      30.25F
RICHMOND       MOCLDY    39  20  46 CALM      30.27R
RALEIGH        CLOUDY    40  31  70 CALM      30.26F

$$

ANZ530>537-231300-
MARINE OBSERVATIONS

STATION/POSITION TIME  TEMP    WIND        PRES
                       AIR SEA DIR/SP/G
                 (UTC) (F)     (DEG/KT/KT) (MB)
THOMAS PT LIGHT  1200   45 47  210/ 12/ 13 1025.3R
BALT KEY BRIDGE  1200   42     170/  4/  5 1023.3S
COVE POINT       1200   45     210/  5/  7 1024.4R
LEWISETTA        1200   44 42  230/  4/  6 1024.2F
SOLOMONS ISLAND  1200      47                N/A
PINEY POINT      1200          230/  6/  7   N/A

$$



USA.gov is the U.S. government's official web portal to all federal, state and local government web resources and services.